K5GBW Weather Reports


time (UTC)temp
F
wind
direction
speed
knots
gust
knots
rain 1hr
in
rain 24hr
in
rain mn
in
humidity
%
barometer
mb
20260504004550 64 256 0.9 4.3 0.00 0.00 0.00 55 1004.1
20260504003046 65 236 2.6 6.1 0.00 0.00 0.00 53 1003.9
20260504001555 66 250 2.6 7.0 0.00 0.00 0.00 52 1003.9
20260504000051 67 226 3.5 14.8 0.00 0.00 0.00 49 1004.0
20260503234623 68 262 4.3 10.4 0.00 0.00 0.00 49 1003.9
20260503233050 68 257 3.5 8.7 0.00 0.00 0.00 46 1004.1
20260503231546 68 282 4.3 11.3 0.00 0.00 0.00 47 1004.1
20260503230051 68 262 6.1 13.9 0.00 0.00 0.00 47 1004.2
20260503224549 69 281 4.3 12.2 0.00 0.00 0.00 47 1004.3
20260503223051 69 205 4.3 12.2 0.00 0.00 0.00 48 1004.2
20260503221559 68 155 5.2 13.9 0.00 0.00 0.00 48 1004.4
20260503220050 67 243 6.1 13.0 0.00 0.00 0.00 48 1004.6
20260503214550 68 168 5.2 14.8 0.00 0.00 0.00 48 1004.8
20260503213048 67 284 5.2 18.2 0.00 0.00 0.00 48 1004.8
20260503211549 67 214 6.1 17.4 0.00 0.00 0.00 49 1005.1
20260503210048 66 259 4.3 12.2 0.00 0.00 0.00 51 1005.3
20260503204550 65 303 7.0 16.5 0.00 0.00 0.00 53 1005.7
20260503203055 64 245 7.0 13.9 0.00 0.00 0.00 54 1006.0
20260503201551 64 239 10.4 18.2 0.00 0.00 0.00 52 1006.3
20260503200055 65 205 8.7 18.2 0.00 0.00 0.00 51 1006.6
20260503194600 65 210 6.1 14.8 0.00 0.00 0.00 49 1006.7
20260503193048 64 256 7.8 17.4 0.00 0.00 0.00 49 1006.8
20260503191553 63 269 7.0 16.5 0.00 0.00 0.00 52 1006.9
20260503190049 63 262 5.2 15.6 0.00 0.00 0.00 49 1007.2
20260503184549 63 243 8.7 16.5 0.00 0.00 0.00 50 1007.2
20260503183053 62 304 6.1 16.5 0.00 0.00 0.00 54 1007.5
20260503181551 61 251 4.3 12.2 0.00 0.00 0.00 57 1007.8
20260503180058 60 278 7.8 14.8 0.00 0.00 0.00 59 1007.9
20260503174556 58 262 7.8 14.8 0.00 0.00 0.00 62 1008.5
20260503173047 57 240 7.0 14.8 0.00 0.00 0.00 64 1009.1
20260503171555 55 162 4.3 10.4 0.00 0.00 0.00 65 1009.4
20260503110106 49 233 4.3 12.2 0.00 0.00 0.00 59 1011.3
20260503081551 48 214 4.3 8.7 0.00 0.00 0.00 58 1012.5
20260503071608 47 236 2.6 8.7 0.00 0.00 0.00 60 1012.7
20260503060109 46 200 1.7 7.0 0.00 0.00 0.00 63 1013.6
20260503054558 46 243 1.7 5.2 0.00 0.00 0.00 63 1013.6
20260503053048 46 254 1.7 4.3 0.00 0.00 0.00 64 1013.7
20260503051550 45 243 1.7 7.0 0.00 0.00 0.00 65 1013.9
20260503050053 45 213 0.9 5.2 0.00 0.00 0.00 67 1013.8
20260503044552 44 230 0.9 4.3 0.00 0.00 0.00 69 1013.9
20260503043054 43 234 0.9 4.3 0.00 0.00 0.00 72 1014.0
20260503041550 42 197 0.0 1.7 0.00 0.00 0.00 76 1014.0
20260503034548 40 0 0.0 1.7 0.00 0.00 0.00 84 1014.3
20260503033046 39 0 0.0 1.7 0.00 0.00 0.00 85 1014.4
20260503031603 40 0 0.0 1.7 0.00 0.00 0.00 86 1014.4
20260503030050 39 186 0.0 0.0 0.00 0.00 0.00 86 1014.6
20260503024554 39 0 0.0 0.9 0.00 0.00 0.00 85 1014.7
20260503023051 39 0 0.0 0.9 0.00 0.00 0.00 85 1014.8
20260503021555 39 0 0.0 0.9 0.00 0.00 0.00 85 1014.8
20260503020054 39 144 0.0 0.9 0.00 0.00 0.00 84 1014.8
20260503014606 40 0 0.0 0.9 0.00 0.00 0.00 82 1014.6
20260503013050 41 0 0.0 0.9 0.00 0.00 0.00 80 1014.6
20260503011553 42 0 0.0 1.7 0.00 0.00 0.00 78 1014.6
20260503010049 43 0 0.0 3.5 0.00 0.00 0.00 76 1014.6